[[{"header":{"parameterUnit":"m.s-1","parameterCategory":1,"la1":30.2991,"la2":30.254,"lo1":-89.0895,"lo2":-89.0444,"dy":0.0017,"dx":0.0017,"nx":28,"ny":28,"refTime":"2024-07-11T09:00:00:Z","depth":0,"parameterNumber":2,"parameterNumberName":"U-component_of_WINDS"},"data":[0,0,0,0,0,0,0,0,0,0,0,0,0,0,0,0,0,0,0,0,0,0,0,0,0,0,0,0,0,0,0,0,0,0,0,0,0,0,0,0,0,0,0,0,0,0,0,0,0,0,0,0,0,0,0,0,0,0,1.2471,1.2472,0,1.2582,1.2583,1.2584,1.2557,1.2554,1.2552,1.255,1.2666,1.2671,1.2676,0,0,0,0,0,0,0,0,0,0,0,0,0,1.224,1.2245,1.2471,1.2472,1.2474,1.2581,1.2583,1.2584,1.2557,1.2554,1.2552,1.2549,1.2664,1.267,1.2676,0,0,0,0,0,0,0,0,0,0,0,0,0,1.2345,1.2246,1.2471,1.2473,1.2474,1.2581,1.2583,1.2585,1.2557,1.2554,1.2551,1.2548,1.2662,1.267,1.2677,1.2789,0,0,1.2701,1.2704,0,0,0,0,0,0,0,0,1.2339,1.2353,1.2471,1.2473,1.2475,1.2552,1.2544,1.2653,1.2558,1.2526,1.255,1.2546,1.2631,1.2641,1.2669,1.2795,1.28,1.2701,1.2706,1.2709,1.2711,0,0,0,0,0,0,0,1.2332,1.2348,1.2515,1.2473,1.2475,1.247,1.2481,1.2565,1.2595,1.2529,1.2527,1.254,1.2631,1.2661,1.2671,1.2801,1.2701,1.2708,1.2713,1.2716,1.3027,1.303,0,0,0,0,0,0,1.2323,1.2343,1.2511,1.2518,1.2397,1.2477,1.2489,1.253,1.2594,1.2601,1.2543,1.2538,1.265,1.2662,1.2675,1.2812,1.2709,1.2716,1.2721,1.3023,1.3028,1.3032,0,0,0,0,0,0,1.2318,1.2338,1.2507,1.243,1.2451,1.2484,1.2531,1.2534,1.2565,1.2605,1.2611,1.2568,1.2648,1.2665,1.2761,1.2815,1.272,1.2727,1.3019,1.3025,1.303,1.3085,0,0,0,0,0,0,1.2311,1.2336,1.2378,1.2431,1.2455,1.259,1.2534,1.2539,1.2577,1.2573,1.263,1.2637,1.2647,1.275,1.2769,1.2824,1.2733,1.3014,1.3021,1.3028,1.3079,1.3092,1.3103,0,0,0,0,0,1.2303,1.239,1.2381,1.2401,1.2508,1.2593,1.2607,1.2616,1.2582,1.2625,1.2651,1.2635,1.2806,1.276,1.2781,1.284,1.3011,1.3019,1.3027,1.3073,1.3089,1.3103,0,0,0,0,0,0,1.2343,1.2397,1.2387,1.2493,1.2539,1.2589,1.2643,1.2633,1.269,1.2684,1.2693,1.2707,1.2806,1.2832,1.278,1.2952,1.2904,1.2917,1.2931,1.2947,1.2959,1.2951,1.2739,0,0,0,0,0,1.2364,1.2428,1.2472,1.2561,1.2584,1.261,1.2647,1.2651,1.2699,1.2718,1.2751,1.28,1.2865,1.2907,1.2969,1.3082,1.3095,1.3133,1.3145,1.3155,1.3166,1.323,1.3247,1.3059,1.3059,1.3059,0,0,1.2409,1.2446,1.2485,1.257,1.2606,1.2673,1.2626,1.2699,1.2749,1.2729,1.2823,1.2849,1.2904,1.301,1.3058,1.3035,1.3221,1.3166,1.3173,1.3179,1.324,1.3258,1.3274,1.3065,1.3064,1.3063,0,0,1.2524,1.2558,1.2637,1.2674,1.2728,1.2745,1.2764,1.2816,1.2832,1.2926,1.2913,1.2974,1.3085,1.3125,1.3159,1.3291,1.3279,1.3311,1.3376,1.3437,1.3452,1.3465,1.3514,1.3531,1.3322,1.3322,1.3323,0,1.2572,1.2672,1.2679,1.2753,1.2791,1.2776,1.2857,1.2892,1.2965,1.2993,1.2965,1.3106,1.3141,1.3257,1.3289,1.3317,1.3341,1.3305,1.3449,1.3463,1.3475,1.3521,1.3539,1.3326,1.3326,1.3325,1.3325,0,1.2729,1.2799,1.2856,1.2926,1.2971,1.3048,1.3068,1.3113,1.3112,1.3132,1.3229,1.3271,1.3342,1.337,1.337,1.3487,1.3471,1.3446,1.3398,1.3497,1.354,1.3558,1.3331,1.333,1.3329,1.3328,0,0,1.2873,1.2946,1.2967,1.2999,1.3059,1.3113,1.319,1.3259,1.3298,1.3349,1.3415,1.351,1.3488,1.3528,1.3533,1.3587,1.369,1.3556,1.3558,1.358,1.3822,1.3841,1.3861,1.3682,1.3685,1.3688,1.3818,0,1.2994,1.3129,1.3138,1.326,1.3325,1.3312,1.338,1.3425,1.3446,1.3505,1.3529,1.3596,1.3562,1.3586,1.3639,1.3666,1.3739,1.3657,1.3745,1.3748,1.3732,1.3883,1.3903,1.4023,1.3835,1.3838,1.384,0,1.3153,1.3208,1.3337,1.3389,1.3417,1.3477,1.3541,1.3598,1.3649,1.3661,1.3705,1.3703,1.3784,1.3732,1.3845,1.3789,1.3826,1.3845,1.385,1.3859,1.38,1.3897,1.4062,1.408,1.3867,1.3865,1.3863,0,1.3246,1.3353,1.3444,1.3472,1.3534,1.3577,1.3605,1.3653,1.3694,1.3751,1.3778,1.3844,1.388,1.3931,1.3948,1.3908,1.406,1.4009,1.4073,1.4073,1.4106,1.4104,1.428,1.4129,1.4128,1.4128,1.4128,0,1.3381,1.346,1.3486,1.3543,1.3632,1.3643,1.3731,1.3757,1.38,1.3862,1.3855,1.3914,1.3931,1.3994,1.4007,1.4099,1.4115,1.4128,1.413,1.4129,1.4127,1.4153,1.4145,1.4133,1.4132,1.4131,1.413,0,1.3499,1.352,1.3619,1.367,1.3685,1.3748,1.3793,1.3848,1.3868,1.3947,1.3966,1.3998,1.4071,1.4092,1.418,1.4189,1.4297,1.4292,1.428,1.428,1.4343,1.4337,1.4542,1.457,1.44,1.4401,1.4403,0,1.3584,1.3645,1.3703,1.3744,1.3773,1.3839,1.3881,1.3894,1.3939,1.4002,1.405,1.4122,1.418,1.4298,1.433,1.4397,1.4394,1.4461,1.4404,1.4401,1.4396,1.4393,1.4399,1.4472,1.4474,1.4475,1.4476,0,1.3733,1.3741,1.3801,1.3865,1.3915,1.3967,1.4016,1.4051,1.4071,1.4122,1.4196,1.4241,1.4331,1.4403,1.4471,1.4502,1.4494,1.4494,1.4513,1.4512,1.4503,1.4509,1.431,1.449,1.4488,1.4487,1.4487,1.4486,1.3838,1.3892,1.3942,1.4009,1.4048,1.4095,1.4149,1.4176,1.4238,1.4312,1.4316,1.4397,1.4448,1.4539,1.4574,1.4638,1.4618,1.4645,1.4652,1.4658,1.4664,1.4492,1.4651,1.465,1.465,1.465,1.4649,0,1.3988,1.4019,1.4081,1.415,1.4204,1.4191,1.4245,1.4292,1.4362,1.4411,1.4468,1.4554,1.4624,1.4662,1.4732,1.4777,1.4775,1.4795,1.4792,1.4799,1.4677,1.4654,1.4795,1.4795,1.4795,1.4795,1.4795,1.4795,1.4072,1.4163,1.4176,1.4287,1.4318,1.4396,1.4429,1.4473,1.4511,1.4607,1.4665,1.4689,1.4734,1.4807,1.4872,1.4881,1.4908,1.493,1.4938,1.4823,1.4808,1.4794,1.4772,1.4936,1.4936,1.5055,1.5056,1.5057]},{"header":{"parameterUnit":"m.s-1","parameterCategory":1,"la1":30.2991,"la2":30.254,"lo1":-89.0895,"lo2":-89.0444,"dy":0.0017,"dx":0.0017,"nx":28,"ny":28,"refTime":"2024-07-11T09:00:00:Z","depth":0,"parameterNumber":3,"parameterNumberName":"V-component_of_WINDS"},"data":[0,0,0,0,0,0,0,0,0,0,0,0,0,0,0,0,0,0,0,0,0,0,0,0,0,0,0,0,0,0,0,0,0,0,0,0,0,0,0,0,0,0,0,0,0,0,0,0,0,0,0,0,0,0,0,0,0,0,-0.8967,-0.8967,0,-0.9007,-0.9007,-0.9008,-0.901,-0.9009,-0.9009,-0.9008,-0.905,-0.9052,-0.9054,0,0,0,0,0,0,0,0,0,0,0,0,0,-0.8893,-0.8894,-0.8967,-0.8967,-0.8968,-0.9007,-0.9007,-0.9008,-0.901,-0.9009,-0.9009,-0.9008,-0.905,-0.9052,-0.9054,0,0,0,0,0,0,0,0,0,0,0,0,0,-0.8928,-0.8895,-0.8967,-0.8973,-0.8974,-0.9007,-0.9007,-0.9008,-0.901,-0.9009,-0.9008,-0.9008,-0.9049,-0.9052,-0.9054,-0.9083,0,0,-0.9061,-0.9062,0,0,0,0,0,0,0,0,-0.8926,-0.8931,-0.8972,-0.8973,-0.8974,-0.9003,-0.8997,-0.9033,-0.901,-0.8996,-0.9008,-0.9007,-0.9035,-0.9039,-0.9048,-0.9085,-0.9087,-0.9061,-0.9063,-0.9064,-0.9064,0,0,0,0,0,0,0,-0.8924,-0.8929,-0.8983,-0.8972,-0.8974,-0.8975,-0.8979,-0.9004,-0.9019,-0.8997,-0.8998,-0.9002,-0.9036,-0.9046,-0.9049,-0.9087,-0.9061,-0.9063,-0.9065,-0.9066,-0.9151,-0.9152,0,0,0,0,0,0,-0.892,-0.8927,-0.8981,-0.8984,-0.8948,-0.8977,-0.8981,-0.8994,-0.9019,-0.9022,-0.9003,-0.9002,-0.9042,-0.9046,-0.905,-0.9086,-0.9064,-0.9066,-0.9067,-0.915,-0.9151,-0.9152,0,0,0,0,0,0,-0.8918,-0.8925,-0.898,-0.8956,-0.8963,-0.8979,-0.8993,-0.8995,-0.9005,-0.9023,-0.9026,-0.901,-0.9041,-0.9047,-0.9075,-0.9087,-0.9067,-0.9069,-0.9149,-0.915,-0.9152,-0.9158,0,0,0,0,0,0,-0.8916,-0.8924,-0.8935,-0.8956,-0.8964,-0.9003,-0.8994,-0.8997,-0.9009,-0.9009,-0.9031,-0.9034,-0.9041,-0.9071,-0.9077,-0.909,-0.9071,-0.9148,-0.915,-0.9151,-0.9156,-0.9159,-0.9161,0,0,0,0,0,-0.8914,-0.8935,-0.8935,-0.8942,-0.8978,-0.9004,-0.9009,-0.9017,-0.901,-0.9021,-0.9033,-0.9033,-0.9085,-0.9074,-0.9081,-0.9095,-0.9147,-0.9149,-0.9151,-0.9155,-0.9158,-0.9161,0,0,0,0,0,0,-0.8915,-0.8938,-0.8938,-0.8967,-0.8984,-0.9004,-0.9018,-0.902,-0.9038,-0.9037,-0.9047,-0.9052,-0.908,-0.909,-0.9077,-0.9125,-0.9116,-0.9119,-0.9116,-0.912,-0.9122,-0.9119,-0.9073,0,0,0,0,0,-0.8919,-0.8938,-0.8957,-0.8981,-0.8989,-0.9002,-0.9014,-0.9019,-0.9036,-0.9043,-0.9057,-0.9074,-0.9095,-0.9108,-0.9128,-0.9158,-0.9163,-0.9171,-0.9174,-0.9175,-0.9178,-0.9195,-0.9199,-0.9158,-0.9158,-0.9158,0,0,-0.8927,-0.8942,-0.8953,-0.8981,-0.8994,-0.9014,-0.9008,-0.9029,-0.9044,-0.9047,-0.9073,-0.9084,-0.9104,-0.9134,-0.9147,-0.9143,-0.9191,-0.9178,-0.9179,-0.9181,-0.9198,-0.9202,-0.9205,-0.916,-0.9159,-0.9159,0,0,-0.8951,-0.8964,-0.8985,-0.8999,-0.9019,-0.9028,-0.9033,-0.9054,-0.9061,-0.9088,-0.909,-0.9109,-0.9144,-0.9158,-0.917,-0.9201,-0.9201,-0.9207,-0.9219,-0.9236,-0.9239,-0.9242,-0.9253,-0.9257,-0.9209,-0.9209,-0.9209,0,-0.8958,-0.8988,-0.8996,-0.9018,-0.903,-0.9033,-0.9055,-0.9068,-0.9094,-0.9103,-0.9098,-0.9142,-0.9156,-0.9188,-0.9196,-0.9206,-0.9212,-0.9204,-0.9238,-0.9241,-0.9244,-0.9255,-0.9259,-0.921,-0.921,-0.921,-0.921,0,-0.8996,-0.9017,-0.9032,-0.9056,-0.907,-0.9092,-0.9104,-0.9118,-0.9122,-0.9131,-0.916,-0.9176,-0.92,-0.9208,-0.9212,-0.9242,-0.9239,-0.9236,-0.9227,-0.9248,-0.9258,-0.9262,-0.9211,-0.9211,-0.921,-0.921,0,0,-0.9022,-0.9051,-0.9056,-0.9068,-0.909,-0.9107,-0.9129,-0.9151,-0.9163,-0.9181,-0.92,-0.923,-0.9228,-0.9241,-0.9247,-0.9262,-0.9286,-0.9257,-0.9258,-0.9262,-0.932,-0.9321,-0.9326,-0.9286,-0.9287,-0.9288,-0.9318,0,-0.9048,-0.9087,-0.9096,-0.9129,-0.9148,-0.9152,-0.9172,-0.9188,-0.9198,-0.9216,-0.9228,-0.9249,-0.9244,-0.9252,-0.9267,-0.9279,-0.9297,-0.9277,-0.9304,-0.9305,-0.9299,-0.9331,-0.9333,-0.936,-0.9322,-0.9323,-0.9323,0,-0.9084,-0.9103,-0.9138,-0.9159,-0.9168,-0.9185,-0.9206,-0.9224,-0.9243,-0.9249,-0.9265,-0.9269,-0.9293,-0.9283,-0.9317,-0.9303,-0.9315,-0.9323,-0.9324,-0.9326,-0.9315,-0.9334,-0.9369,-0.9373,-0.9329,-0.9329,-0.9329,0,-0.9099,-0.9133,-0.9159,-0.9169,-0.9194,-0.9206,-0.9217,-0.9235,-0.9248,-0.9268,-0.9276,-0.9299,-0.9311,-0.9328,-0.9338,-0.933,-0.9371,-0.9362,-0.9377,-0.9377,-0.9385,-0.9384,-0.9422,-0.9393,-0.9393,-0.9393,-0.9393,0,-0.9128,-0.9149,-0.9166,-0.9182,-0.9206,-0.9216,-0.9241,-0.9252,-0.9268,-0.9287,-0.9292,-0.9309,-0.9322,-0.9342,-0.935,-0.9377,-0.9382,-0.9388,-0.939,-0.9387,-0.9387,-0.9395,-0.9393,-0.9394,-0.9394,-0.9394,-0.9393,0,-0.9148,-0.916,-0.9189,-0.921,-0.9216,-0.9233,-0.9252,-0.9268,-0.9278,-0.9301,-0.9308,-0.9324,-0.9347,-0.936,-0.9389,-0.9395,-0.9424,-0.9425,-0.9417,-0.9418,-0.9432,-0.9431,-0.9476,-0.9483,-0.945,-0.945,-0.945,0,-0.9166,-0.9182,-0.9206,-0.9218,-0.9229,-0.925,-0.9263,-0.9274,-0.9288,-0.9312,-0.9325,-0.9348,-0.9368,-0.9405,-0.9419,-0.9442,-0.9443,-0.9458,-0.9447,-0.9444,-0.9444,-0.9442,-0.9444,-0.946,-0.946,-0.946,-0.946,0,-0.9195,-0.92,-0.9219,-0.9241,-0.9257,-0.9275,-0.9292,-0.9302,-0.9316,-0.9332,-0.9356,-0.9371,-0.9401,-0.9424,-0.9448,-0.946,-0.9463,-0.9464,-0.9469,-0.9466,-0.946,-0.9463,-0.9422,-0.9463,-0.9462,-0.9462,-0.9462,-0.9462,-0.9214,-0.9229,-0.9248,-0.927,-0.9284,-0.93,-0.9316,-0.9329,-0.9349,-0.9373,-0.9379,-0.9404,-0.9424,-0.9456,-0.9469,-0.9489,-0.9486,-0.9493,-0.9494,-0.9496,-0.9496,-0.9458,-0.9493,-0.9493,-0.9493,-0.9493,-0.9493,0,-0.9243,-0.9256,-0.9276,-0.93,-0.9317,-0.9318,-0.9338,-0.9352,-0.9374,-0.9392,-0.9411,-0.9439,-0.9461,-0.9478,-0.9502,-0.9515,-0.9517,-0.9521,-0.952,-0.9522,-0.9498,-0.9491,-0.9519,-0.9519,-0.9519,-0.9519,-0.9519,-0.9519,-0.926,-0.9286,-0.9294,-0.9327,-0.934,-0.9364,-0.9375,-0.9391,-0.9405,-0.9435,-0.9454,-0.9465,-0.9483,-0.9508,-0.9529,-0.9534,-0.9542,-0.9546,-0.9551,-0.9527,-0.9524,-0.9521,-0.9515,-0.9548,-0.9548,-0.9574,-0.9574,-0.9574]}]]